Theta_e
350 350 350 353 354 353 353 353 352 349 349 351 353 353 352 352 351 350 347 349 350 348 352 351 349 351 349 344 341 340 339 339 340 341 342 342 342 340 341 345 351 348 349
349 350 349 353 354 353 352 352 351 351 352 352 353 352 352 352 352 350 349 347 346 345 352 350 350 342 336 335 336 337 338 341 341 342 343 345 344 344 343 348 351 348 350
349 351 350 353 354 353 351 352 352 353 352 353 353 351 352 352 349 349 353 351 347 350 352 351 349 339 341 344 342 342 342 339 341 349 351 346 343 343 343 346 349 348 350
353 349 350 351 353 352 351 351 352 353 353 351 346 347 348 346 348 352 354 354 354 351 352 352 347 351 346 343 343 342 339 342 346 349 349 348 348 343 346 346 344 347 349
352 347 349 351 353 353 350 353 352 352 353 351 350 352 352 350 351 353 354 353 352 350 353 351 350 350 348 337 336 335 343 346 347 350 348 348 346 341 344 344 343 343 349
352 347 349 351 354 354 354 351 350 352 351 349 352 353 355 354 355 354 352 352 352 352 351 351 352 352 351 336 338 340 342 343 346 349 348 348 347 340 340 342 344 350 350
355 350 352 350 350 350 349 348 350 352 353 352 349 354 354 354 354 352 354 353 352 353 354 353 351 349 343 338 337 341 343 346 350 348 347 347 348 339 346 350 349 349 348
353 352 354 351 349 349 347 348 352 353 353 351 351 354 352 350 353 354 351 354 354 352 352 349 345 343 344 343 340 341 343 347 349 348 348 348 348 341 349 350 349 345 347
353 351 353 350 350 349 345 348 346 347 352 353 354 354 348 352 354 354 354 355 353 354 351 344 342 341 342 342 342 343 345 347 349 349 349 347 339 344 349 350 344 345 349
354 353 352 352 350 349 347 344 345 353 353 351 353 351 346 354 355 354 352 353 353 351 345 343 341 341 341 341 342 347 345 345 348 349 345 335 339 346 350 350 349 348 348
354 353 352 350 350 348 347 346 344 348 352 349 346 348 350 352 347 350 349 348 344 343 341 340 340 339 339 340 342 346 349 348 348 344 341 333 334 341 349 349 349 348 347
352 352 351 350 349 347 345 346 347 351 346 345 343 344 344 346 349 348 344 342 340 339 338 338 338 337 339 345 348 346 346 349 350 346 345 338 334 332 334 342 344 344 345
350 350 350 349 348 344 345 344 344 350 347 342 345 348 349 350 350 351 344 339 337 337 334 336 334 341 346 347 348 349 348 349 349 351 347 345 340 338 335 334 336 340 345
349 348 349 347 344 343 341 346 348 348 347 339 339 337 348 348 349 350 345 338 338 341 348 342 340 342 346 346 347 346 348 349 348 350 348 346 343 343 341 339 336 334 340
348 349 347 346 344 341 339 341 345 345 341 339 339 345 347 348 348 348 347 348 348 345 346 344 340 342 345 345 344 346 347 347 350 350 350 349 345 344 343 342 342 338 336
350 348 347 345 344 342 339 338 343 343 342 337 339 345 346 347 350 352 353 350 348 348 345 342 343 345 344 344 344 349 349 350 351 353 351 349 346 344 344 344 344 344 341
351 348 348 346 344 343 342 338 340 341 338 337 338 342 344 344 349 350 351 351 350 348 351 350 346 349 349 349 350 351 352 352 352 352 350 351 349 345 344 343 344 344 345
350 349 349 348 346 344 343 339 338 339 338 339 338 334 335 336 342 347 349 350 350 353 351 346 350 353 352 350 352 354 353 353 352 352 351 353 352 348 346 344 350 347 348
349 350 350 346 343 343 342 340 337 337 338 335 335 337 335 339 342 348 350 350 351 349 352 351 352 351 349 350 352 352 352 350 351 353 352 352 350 351 352 349 350 351 348
343 348 350 348 348 344 345 345 342 339 338 339 332 334 333 336 346 349 350 350 350 352 352 352 352 350 350 352 353 352 349 346 349 351 352 352 349 351 348 350 352 352 348
345 345 346 346 346 345 342 345 340 338 338 336 334 334 334 341 346 348 351 351 352 353 351 353 353 357 354 351 355 353 351 348 345 349 350 344 343 353 352 353 353 348 353
346 346 344 345 344 341 339 335 332 338 337 336 332 332 335 343 348 350 353 352 351 352 352 354 354 353 356 354 355 352 345 349 345 343 343 347 347 354 352 352 351 353 354
348 346 343 349 348 348 343 338 335 332 335 334 332 334 343 349 350 351 352 353 351 353 353 356 355 355 356 353 354 353 352 348 345 345 341 341 345 355 354 351 353 353 354
352 348 348 348 348 348 349 343 347 342 338 342 346 348 348 352 353 353 355 354 354 354 354 356 354 356 355 354 353 354 352 353 345 345 343 340 339 342 349 348 347 349 355
356 352 351 353 351 351 351 350 351 350 349 348 348 350 350 352 355 354 356 356 356 357 356 358 357 356 356 356 354 354 353 350 351 348 342 341 339 341 344 346 348 354 354
354 358 357 354 353 349 354 352 353 352 349 349 348 352 354 356 355 355 346 354 359 357 356 356 358 357 356 355 351 353 355 354 352 351 340 339 341 344 344 348 349 351 350
Wind_Speed
11 15 17 20 23 25 25 25 27 29 29 30 30 31 30 29 29 29 29 28 25 23 19 18 17 16 15 15 13 13 9 3 2 3 4 7 7 9 10 13 11 12 14
16 17 18 21 24 25 26 26 27 28 27 28 28 29 28 27 26 25 23 22 21 18 17 17 15 15 14 11 10 8 6 5 5 7 8 8 9 10 10 15 14 13 14
18 19 20 23 24 25 27 26 26 26 26 26 26 27 26 26 25 24 21 20 20 19 17 16 13 11 10 9 8 8 8 7 9 10 8 8 8 9 10 10 14 13 15
22 21 22 23 25 26 27 27 27 25 25 25 26 26 24 23 23 21 20 19 19 18 16 14 11 10 10 9 9 9 9 10 11 10 9 7 7 7 8 13 14 15 15
23 21 22 24 26 25 26 28 27 26 25 24 22 21 20 21 21 20 19 18 18 16 15 14 13 12 10 9 8 10 11 11 10 7 9 9 7 9 11 14 14 15 17
22 21 22 25 25 25 25 27 28 26 24 23 20 19 18 19 18 19 19 18 18 17 17 16 13 11 8 8 9 10 7 4 4 8 10 9 9 11 12 13 14 15 15
22 23 22 24 25 24 25 25 26 24 23 22 20 18 18 17 18 20 19 19 19 17 16 14 12 10 8 8 9 6 3 1 4 10 11 12 11 10 14 13 13 14 15
25 22 21 21 25 24 25 24 23 23 22 20 19 17 17 18 18 20 21 18 17 15 14 13 11 9 8 7 7 7 4 4 3 13 10 10 13 11 13 14 14 14 15
23 21 21 21 24 24 28 22 21 20 19 18 18 17 18 19 18 19 18 16 15 12 11 11 10 9 8 7 6 3 2 3 5 12 11 8 13 13 13 13 14 13 15
23 23 21 22 25 29 27 26 22 18 17 18 19 18 19 19 17 17 17 15 13 11 9 9 9 7 5 4 5 4 3 2 1 14 12 12 13 15 15 15 15 14 15
22 23 24 25 28 29 27 26 24 18 18 20 21 21 19 19 18 16 15 14 12 9 8 7 6 5 3 3 4 7 6 3 7 9 11 11 12 14 16 15 15 15 15
24 21 24 30 32 32 30 28 26 23 19 20 22 21 20 18 14 13 13 11 10 8 6 5 4 4 6 8 8 7 12 12 8 11 11 13 13 13 14 16 16 16 17
27 22 28 33 33 31 28 26 23 23 19 19 25 23 21 18 11 13 11 11 9 8 5 3 3 5 7 9 5 13 9 12 14 21 12 17 17 15 16 16 16 17 16
26 26 25 30 31 30 26 23 22 22 20 19 22 18 15 13 12 10 8 8 8 7 7 1 4 10 7 7 10 10 15 17 19 22 17 18 20 18 18 16 16 17 17
27 27 24 21 23 25 24 20 19 19 21 20 21 18 13 6 5 3 9 14 15 13 12 8 5 6 8 11 14 13 13 13 5 12 20 17 23 19 19 18 16 16 17
30 28 23 23 23 23 24 21 18 18 20 23 21 14 7 8 8 9 8 5 9 8 9 10 8 9 12 15 15 15 16 15 15 16 11 23 25 24 22 20 19 18 19
31 26 22 22 21 22 20 23 18 16 19 21 21 11 6 6 6 7 10 12 8 3 6 4 8 14 14 17 19 19 16 19 19 16 10 10 25 25 26 23 19 18 19
30 28 25 24 22 21 19 22 21 17 17 19 19 14 8 1 5 5 8 14 9 9 8 12 8 9 9 13 15 15 15 20 15 14 15 12 11 24 32 27 13 20 18
30 31 28 28 25 22 20 21 22 20 19 19 18 14 5 3 4 6 6 9 10 9 8 4 9 11 15 16 19 18 19 18 12 10 12 11 15 21 23 19 19 18 23
23 32 33 29 27 21 22 21 19 19 22 18 21 13 9 7 6 6 9 11 10 9 10 10 11 11 12 13 17 22 20 16 11 6 8 13 12 19 23 21 26 19 19
25 29 36 34 30 29 27 27 21 24 24 25 21 17 11 12 11 13 12 12 11 11 12 11 11 12 13 11 18 20 18 11 8 3 8 6 12 19 23 18 22 26 22
32 33 30 26 29 28 28 26 23 27 26 27 23 18 17 17 14 15 15 17 15 14 13 13 13 13 13 10 6 17 4 10 15 8 10 12 15 10 16 17 19 21 24
29 35 32 26 28 25 26 23 20 20 21 22 23 24 22 19 17 17 19 19 17 15 15 11 8 11 14 15 7 2 2 2 5 8 13 13 8 17 16 12 19 20 20
30 35 30 32 29 26 24 23 21 25 22 28 26 22 22 21 22 19 19 18 17 15 16 13 11 12 11 14 13 4 7 8 1 4 9 15 17 12 5 4 7 10 15
31 35 33 34 32 24 24 25 22 21 21 18 20 21 18 16 18 16 18 17 16 19 16 11 10 10 11 12 11 12 13 13 1 0 2 12 18 15 18 9 4 8 11
29 28 31 33 29 24 23 21 23 22 20 16 15 15 14 13 11 14 10 18 19 15 12 12 11 8 10 12 11 10 7 4 8 4 2 7 10 20 22 14 3 4 3
Wind_Direction
116 115 113 121 124 119 113 112 111 113 111 111 110 111 115 116 117 118 122 123 124 126 119 117 118 111 112 120 130 148 157 130 100 86 84 94 111 136 132 124 116 132 131
126 122 121 126 129 125 120 117 115 114 113 113 113 113 114 118 119 121 123 125 129 125 118 116 115 120 121 122 131 144 152 140 115 99 94 105 111 129 141 143 139 144 139
122 128 126 131 130 128 126 121 119 118 116 116 117 117 117 118 118 117 119 122 123 123 123 118 118 120 117 120 124 128 131 126 125 117 109 98 128 130 130 144 144 144 142
128 133 131 135 133 131 130 125 123 121 120 118 119 117 115 119 121 119 121 123 124 125 125 125 123 118 117 123 124 124 128 129 128 116 104 125 125 137 150 155 150 147 151
130 129 133 139 135 134 131 127 124 123 122 119 118 118 120 120 120 123 123 124 127 131 124 123 121 118 115 112 121 136 136 132 131 129 153 165 167 143 143 156 151 155 159
133 130 135 139 138 137 134 131 126 122 123 124 120 118 118 122 122 121 121 124 125 127 126 126 124 120 124 119 128 141 152 156 163 159 164 163 170 158 152 155 160 165 164
125 129 135 139 140 137 133 128 125 123 124 123 124 119 120 122 124 123 124 127 128 130 131 131 131 131 128 121 139 150 160 210 251 189 179 181 188 168 160 162 163 178 174
117 126 132 138 140 136 130 127 125 123 124 127 128 124 122 126 125 126 127 129 130 135 136 135 135 133 131 121 134 139 119 69 68 179 177 190 188 179 173 175 170 174 177
119 125 131 134 140 137 133 131 128 125 123 128 127 128 126 125 130 131 133 133 138 142 143 139 138 134 128 123 131 116 192 160 131 180 181 194 181 176 180 182 184 190 185
119 126 127 134 140 136 136 132 129 124 128 126 125 127 131 131 135 143 141 144 146 151 152 151 147 151 154 158 142 135 105 41 317 176 209 192 172 177 185 187 188 190 195
109 123 133 135 140 136 134 136 132 138 132 130 130 128 133 134 142 145 148 151 154 160 157 164 170 181 199 192 198 184 190 58 62 152 202 197 181 180 185 189 193 194 198
109 123 135 138 141 138 133 137 141 138 140 141 139 141 138 140 147 152 155 154 157 170 182 195 207 230 257 270 261 251 249 228 206 170 204 206 202 190 187 193 195 198 201
117 121 141 141 144 137 133 140 143 146 148 143 146 148 144 147 170 170 173 170 170 189 197 210 224 276 294 316 327 227 272 226 239 224 219 208 198 206 198 191 196 200 202
122 122 147 147 145 141 135 136 142 152 153 150 162 152 145 151 165 183 214 203 196 209 206 275 280 309 274 275 286 286 275 261 245 227 218 217 208 210 209 201 198 200 203
125 131 137 152 157 157 148 139 139 150 153 151 152 149 143 118 155 231 245 243 240 241 236 226 275 278 277 287 291 292 291 292 309 247 247 244 222 215 216 214 206 205 207
134 139 144 150 154 159 169 161 150 152 155 158 154 148 141 79 47 30 23 329 277 327 232 214 247 261 275 285 283 293 306 306 303 313 287 232 225 220 218 219 219 210 210
139 133 146 149 157 165 166 178 166 151 160 165 174 167 155 63 37 22 18 358 2 330 301 303 313 308 285 282 289 290 297 293 294 293 286 281 241 231 230 225 219 223 227
139 141 144 148 153 161 161 171 174 174 170 173 184 188 182 356 31 17 1 357 354 354 342 314 293 298 307 297 302 302 301 305 301 296 271 309 263 233 244 231 232 248 235
155 149 155 147 146 151 161 167 174 184 179 176 180 183 193 300 322 316 328 338 313 287 327 328 284 307 317 309 313 305 306 309 315 282 277 253 287 253 252 249 237 243 248
154 150 160 153 152 146 170 173 179 184 189 188 180 207 232 265 290 289 289 293 299 282 286 305 316 316 313 312 311 305 304 319 297 233 252 259 245 257 233 255 233 230 260
159 145 149 152 156 153 157 163 171 178 185 188 204 218 242 254 268 286 278 277 278 292 288 292 292 296 309 316 309 314 310 347 33 297 236 241 262 247 231 257 235 238 246
167 155 151 162 162 167 172 171 162 170 182 189 204 223 246 261 265 267 260 266 263 271 270 272 278 283 291 312 319 325 330 334 346 8 348 312 262 235 249 239 242 250 242
172 170 175 170 174 180 184 175 171 182 185 204 223 239 246 251 253 255 252 260 260 259 264 272 267 269 285 300 321 274 356 298 312 338 349 359 330 240 234 257 247 253 243
174 178 178 176 188 186 174 183 185 190 192 216 226 239 248 255 263 251 253 252 258 266 268 266 279 266 272 286 314 191 312 305 321 328 342 347 345 351 251 278 248 264 215
163 179 178 183 190 189 187 193 197 204 217 223 230 244 255 271 259 253 259 257 260 262 269 265 272 273 269 275 288 305 329 335 159 332 286 325 324 330 329 300 271 168 205
164 163 177 186 192 193 197 198 205 214 224 234 242 249 251 252 242 241 283 267 253 251 257 266 274 274 289 291 298 299 309 312 317 328 322 315 316 328 339 282 217 207 229